Time,TemperatureF,DewpointF,PressureIn,WindDirection,WindDirectionDegrees,WindSpeedMPH,WindSpeedGustMPH,Humidity,HourlyPrecipIn,Conditions,Clouds,dailyrainin,SoftwareType,DateUTC
2013-08-23 00:00:00,73.6,69.2,30.03,ENE,68,0.0,-999.0,86,0.00,,,0.00,Wunderground v.1.15,2013-08-23 04:00:00,
2013-08-23 00:05:00,73.6,69.2,30.03,ENE,68,0.0,-999.0,86,0.00,,,0.00,Wunderground v.1.15,2013-08-23 04:05:00,
2013-08-23 00:10:00,73.6,69.2,30.03,ENE,68,0.0,-999.0,86,0.00,,,0.00,Wunderground v.1.15,2013-08-23 04:10:00,
2013-08-23 00:15:00,73.6,69.2,30.03,ENE,68,0.0,-999.0,86,0.00,,,0.00,Wunderground v.1.15,2013-08-23 04:15:00,
2013-08-23 00:20:00,73.6,69.2,30.03,ENE,68,0.0,-999.0,86,0.00,,,0.00,Wunderground v.1.15,2013-08-23 04:20:00,
2013-08-23 00:25:00,73.6,69.2,30.03,ENE,68,0.0,-999.0,86,0.00,,,0.00,Wunderground v.1.15,2013-08-23 04:25:00,
2013-08-23 00:30:00,73.6,69.2,30.03,ENE,68,0.0,-999.0,86,0.00,,,0.00,Wunderground v.1.15,2013-08-23 04:30:00,
2013-08-23 00:35:00,73.6,69.2,30.03,ENE,68,0.0,-999.0,86,0.00,,,0.00,Wunderground v.1.15,2013-08-23 04:35:00,
2013-08-23 00:40:00,73.6,69.2,30.03,ENE,68,0.0,-999.0,86,0.00,,,0.00,Wunderground v.1.15,2013-08-23 04:40:00,
2013-08-23 00:45:00,72.9,68.8,30.01,ENE,68,0.0,-999.0,87,0.00,,,0.00,Wunderground v.1.15,2013-08-23 04:45:00,
2013-08-23 00:50:00,72.9,68.8,30.01,ENE,68,0.0,-999.0,87,0.00,,,0.00,Wunderground v.1.15,2013-08-23 04:50:00,
2013-08-23 00:55:00,72.9,68.8,30.01,ENE,68,0.0,-999.0,87,0.00,,,0.00,Wunderground v.1.15,2013-08-23 04:55:00,
2013-08-23 01:00:00,72.9,68.8,30.01,ENE,68,0.0,-999.0,87,0.00,,,0.00,Wunderground v.1.15,2013-08-23 05:00:00,
2013-08-23 01:05:00,72.9,68.8,30.01,ENE,68,0.0,-999.0,87,0.00,,,0.00,Wunderground v.1.15,2013-08-23 05:05:00,
2013-08-23 01:10:00,72.9,68.8,30.01,ENE,68,0.0,-999.0,87,0.00,,,0.00,Wunderground v.1.15,2013-08-23 05:10:00,
2013-08-23 01:15:00,72.1,68.7,30.01,N/A,-737280,0.0,-999.0,89,0.00,,,0.00,Wunderground v.1.15,2013-08-23 05:15:00,
2013-08-23 01:20:00,72.1,68.7,30.01,N/A,-737280,0.0,-999.0,89,0.00,,,0.00,Wunderground v.1.15,2013-08-23 05:20:00,
2013-08-23 01:25:00,72.1,68.7,30.01,N/A,-737280,0.0,-999.0,89,0.00,,,0.00,Wunderground v.1.15,2013-08-23 05:25:00,
2013-08-23 01:30:00,72.1,68.7,30.01,N/A,-737280,0.0,-999.0,89,0.00,,,0.00,Wunderground v.1.15,2013-08-23 05:30:00,
2013-08-23 01:35:00,72.1,68.7,30.01,N/A,-737280,0.0,-999.0,89,0.00,,,0.00,Wunderground v.1.15,2013-08-23 05:35:00,
2013-08-23 01:40:00,72.1,68.7,30.01,N/A,-737280,0.0,-999.0,89,0.00,,,0.00,Wunderground v.1.15,2013-08-23 05:40:00,
2013-08-23 01:45:00,72.6,69.8,30.01,West,270,1.0,-999.0,91,0.00,,,0.00,Wunderground v.1.15,2013-08-23 05:45:00,
2013-08-23 01:50:00,72.6,69.8,30.01,West,270,1.0,-999.0,91,0.00,,,0.00,Wunderground v.1.15,2013-08-23 05:50:00,
2013-08-23 01:55:00,72.6,69.8,30.01,West,270,1.0,-999.0,91,0.00,,,0.00,Wunderground v.1.15,2013-08-23 05:55:00,
2013-08-23 02:00:00,72.6,69.8,30.01,West,270,1.0,-999.0,91,0.00,,,0.00,Wunderground v.1.15,2013-08-23 06:00:00,
2013-08-23 02:05:00,72.6,69.8,30.01,West,270,1.0,-999.0,91,0.00,,,0.00,Wunderground v.1.15,2013-08-23 06:05:00,
2013-08-23 02:10:00,72.6,69.8,30.01,West,270,1.0,-999.0,91,0.00,,,0.00,Wunderground v.1.15,2013-08-23 06:10:00,
2013-08-23 02:15:00,72.9,70.1,29.99,West,270,2.0,-999.0,91,0.00,,,0.00,Wunderground v.1.15,2013-08-23 06:15:00,
2013-08-23 02:20:00,72.9,70.1,29.99,West,270,2.0,-999.0,91,0.00,,,0.00,Wunderground v.1.15,2013-08-23 06:20:00,
2013-08-23 02:25:00,72.9,70.1,29.99,West,270,2.0,-999.0,91,0.00,,,0.00,Wunderground v.1.15,2013-08-23 06:25:00,
2013-08-23 02:30:00,72.9,70.1,29.99,West,270,2.0,-999.0,91,0.00,,,0.00,Wunderground v.1.15,2013-08-23 06:30:00,
2013-08-23 02:35:00,72.9,70.1,29.99,West,270,2.0,-999.0,91,0.00,,,0.00,Wunderground v.1.15,2013-08-23 06:35:00,
2013-08-23 02:40:00,72.9,70.1,29.99,West,270,2.0,-999.0,91,0.00,,,0.00,Wunderground v.1.15,2013-08-23 06:40:00,
2013-08-23 02:45:00,72.8,70.0,29.98,West,270,0.0,-999.0,91,0.00,,,0.00,Wunderground v.1.15,2013-08-23 06:45:00,
2013-08-23 02:50:00,72.8,70.0,29.98,West,270,0.0,-999.0,91,0.00,,,0.00,Wunderground v.1.15,2013-08-23 06:50:00,
2013-08-23 02:55:00,72.8,70.0,29.98,West,270,0.0,-999.0,91,0.00,,,0.00,Wunderground v.1.15,2013-08-23 06:55:00,
2013-08-23 03:00:00,72.8,70.0,29.98,West,270,0.0,-999.0,91,0.00,,,0.00,Wunderground v.1.15,2013-08-23 07:00:00,
2013-08-23 03:05:00,72.8,70.0,29.98,West,270,0.0,-999.0,91,0.00,,,0.00,Wunderground v.1.15,2013-08-23 07:05:00,
2013-08-23 03:10:00,72.8,70.0,29.98,West,270,0.0,-999.0,91,0.00,,,0.00,Wunderground v.1.15,2013-08-23 07:10:00,
2013-08-23 03:15:00,72.4,69.6,29.97,West,270,0.0,-999.0,91,0.00,,,0.00,Wunderground v.1.15,2013-08-23 07:15:00,
2013-08-23 03:20:00,72.4,69.6,29.97,West,270,0.0,-999.0,91,0.00,,,0.00,Wunderground v.1.15,2013-08-23 07:20:00,
2013-08-23 03:25:00,72.4,69.6,29.97,West,270,0.0,-999.0,91,0.00,,,0.00,Wunderground v.1.15,2013-08-23 07:25:00,
2013-08-23 03:30:00,72.4,69.6,29.97,West,270,0.0,-999.0,91,0.00,,,0.00,Wunderground v.1.15,2013-08-23 07:30:00,
2013-08-23 03:35:00,72.4,69.6,29.97,West,270,0.0,-999.0,91,0.00,,,0.00,Wunderground v.1.15,2013-08-23 07:35:00,
2013-08-23 03:40:00,72.4,69.6,29.97,West,270,0.0,-999.0,91,0.00,,,0.00,Wunderground v.1.15,2013-08-23 07:40:00,
2013-08-23 03:45:00,72.1,69.6,29.96,SW,225,0.0,-999.0,92,0.00,,,0.00,Wunderground v.1.15,2013-08-23 07:45:00,
2013-08-23 03:50:00,72.1,69.6,29.96,SW,225,0.0,-999.0,92,0.00,,,0.00,Wunderground v.1.15,2013-08-23 07:50:00,
2013-08-23 03:55:00,72.1,69.6,29.96,SW,225,0.0,-999.0,92,0.00,,,0.00,Wunderground v.1.15,2013-08-23 07:55:00,
2013-08-23 04:00:00,72.1,69.6,29.96,SW,225,0.0,-999.0,92,0.00,,,0.00,Wunderground v.1.15,2013-08-23 08:00:00,
2013-08-23 04:05:00,72.1,69.6,29.96,SW,225,0.0,-999.0,92,0.00,,,0.00,Wunderground v.1.15,2013-08-23 08:05:00,
2013-08-23 04:10:00,72.1,69.6,29.96,SW,225,0.0,-999.0,92,0.00,,,0.00,Wunderground v.1.15,2013-08-23 08:10:00,
2013-08-23 04:15:00,71.3,68.9,29.96,N/A,-737280,0.0,-999.0,92,0.00,,,0.00,Wunderground v.1.15,2013-08-23 08:15:00,
2013-08-23 04:20:00,71.3,68.9,29.96,N/A,-737280,0.0,-999.0,92,0.00,,,0.00,Wunderground v.1.15,2013-08-23 08:20:00,
2013-08-23 04:25:00,71.3,68.9,29.96,N/A,-737280,0.0,-999.0,92,0.00,,,0.00,Wunderground v.1.15,2013-08-23 08:25:00,
2013-08-23 04:30:00,71.3,68.9,29.96,N/A,-737280,0.0,-999.0,92,0.00,,,0.00,Wunderground v.1.15,2013-08-23 08:30:00,
2013-08-23 04:35:00,71.3,68.9,29.96,N/A,-737280,0.0,-999.0,92,0.00,,,0.00,Wunderground v.1.15,2013-08-23 08:35:00,
2013-08-23 04:40:00,71.3,68.9,29.96,N/A,-737280,0.0,-999.0,92,0.00,,,0.00,Wunderground v.1.15,2013-08-23 08:40:00,
2013-08-23 04:45:00,71.5,69.4,29.97,West,270,0.0,-999.0,93,0.00,,,0.00,Wunderground v.1.15,2013-08-23 08:45:00,
2013-08-23 04:50:00,71.5,69.4,29.97,West,270,0.0,-999.0,93,0.00,,,0.00,Wunderground v.1.15,2013-08-23 08:50:00,
2013-08-23 04:55:00,71.5,69.4,29.97,West,270,0.0,-999.0,93,0.00,,,0.00,Wunderground v.1.15,2013-08-23 08:55:00,
2013-08-23 05:00:00,71.5,69.4,29.97,West,270,0.0,-999.0,93,0.00,,,0.00,Wunderground v.1.15,2013-08-23 09:00:00,
2013-08-23 05:05:00,71.5,69.4,29.97,West,270,0.0,-999.0,93,0.00,,,0.00,Wunderground v.1.15,2013-08-23 09:05:00,
2013-08-23 05:10:00,71.5,69.4,29.97,West,270,0.0,-999.0,93,0.00,,,0.00,Wunderground v.1.15,2013-08-23 09:10:00,
2013-08-23 05:15:00,70.9,68.8,29.98,N/A,-737280,0.0,-999.0,93,0.00,,,0.00,Wunderground v.1.15,2013-08-23 09:15:00,
2013-08-23 05:20:00,70.9,68.8,29.98,N/A,-737280,0.0,-999.0,93,0.00,,,0.00,Wunderground v.1.15,2013-08-23 09:20:00,
2013-08-23 05:25:00,70.9,68.8,29.98,N/A,-737280,0.0,-999.0,93,0.00,,,0.00,Wunderground v.1.15,2013-08-23 09:25:00,
2013-08-23 05:30:00,70.9,68.8,29.98,N/A,-737280,0.0,-999.0,93,0.00,,,0.00,Wunderground v.1.15,2013-08-23 09:30:00,
2013-08-23 05:35:00,70.9,68.8,29.98,N/A,-737280,0.0,-999.0,93,0.00,,,0.00,Wunderground v.1.15,2013-08-23 09:35:00,
2013-08-23 05:40:00,70.9,68.8,29.98,N/A,-737280,0.0,-999.0,93,0.00,,,0.00,Wunderground v.1.15,2013-08-23 09:40:00,
2013-08-23 05:45:00,70.4,68.3,29.98,N/A,-737280,0.0,-999.0,93,0.00,,,0.00,Wunderground v.1.15,2013-08-23 09:45:00,
2013-08-23 05:50:00,70.4,68.3,29.98,N/A,-737280,0.0,-999.0,93,0.00,,,0.00,Wunderground v.1.15,2013-08-23 09:50:00,
2013-08-23 05:55:00,70.4,68.3,29.98,N/A,-737280,0.0,-999.0,93,0.00,,,0.00,Wunderground v.1.15,2013-08-23 09:55:00,
2013-08-23 06:00:00,70.4,68.3,29.98,N/A,-737280,0.0,-999.0,93,0.00,,,0.00,Wunderground v.1.15,2013-08-23 10:00:00,
2013-08-23 06:05:00,70.4,68.3,29.98,N/A,-737280,0.0,-999.0,93,0.00,,,0.00,Wunderground v.1.15,2013-08-23 10:05:00,
2013-08-23 06:10:00,70.4,68.3,29.98,N/A,-737280,0.0,-999.0,93,0.00,,,0.00,Wunderground v.1.15,2013-08-23 10:10:00,
2013-08-23 06:15:00,70.1,68.3,29.99,N/A,-737280,0.0,-999.0,94,0.00,,,0.00,Wunderground v.1.15,2013-08-23 10:15:00,
2013-08-23 06:20:00,70.1,68.3,29.99,N/A,-737280,0.0,-999.0,94,0.00,,,0.00,Wunderground v.1.15,2013-08-23 10:20:00,
2013-08-23 06:25:00,70.1,68.3,29.99,N/A,-737280,0.0,-999.0,94,0.00,,,0.00,Wunderground v.1.15,2013-08-23 10:25:00,
2013-08-23 06:30:00,70.1,68.3,29.99,N/A,-737280,0.0,-999.0,94,0.00,,,0.00,Wunderground v.1.15,2013-08-23 10:30:00,
2013-08-23 06:35:00,70.1,68.3,29.99,N/A,-737280,0.0,-999.0,94,0.00,,,0.00,Wunderground v.1.15,2013-08-23 10:35:00,
2013-08-23 06:40:00,70.1,68.3,29.99,N/A,-737280,0.0,-999.0,94,0.00,,,0.00,Wunderground v.1.15,2013-08-23 10:40:00,
2013-08-23 06:45:00,70.3,68.5,29.99,West,270,0.0,-999.0,94,0.00,,,0.00,Wunderground v.1.15,2013-08-23 10:45:00,
2013-08-23 06:50:00,70.3,68.5,29.99,West,270,0.0,-999.0,94,0.00,,,0.00,Wunderground v.1.15,2013-08-23 10:50:00,
2013-08-23 06:55:00,70.3,68.5,29.99,West,270,0.0,-999.0,94,0.00,,,0.00,Wunderground v.1.15,2013-08-23 10:55:00,
2013-08-23 07:00:00,70.3,68.5,29.99,West,270,0.0,-999.0,94,0.00,,,0.00,Wunderground v.1.15,2013-08-23 11:00:00,
2013-08-23 07:05:00,70.3,68.5,29.99,West,270,0.0,-999.0,94,0.00,,,0.00,Wunderground v.1.15,2013-08-23 11:05:00,
2013-08-23 07:10:00,70.3,68.5,29.99,West,270,0.0,-999.0,94,0.00,,,0.00,Wunderground v.1.15,2013-08-23 11:10:00,
2013-08-23 07:15:00,70.5,68.7,30.01,N/A,-737280,0.0,-999.0,94,0.00,,,0.00,Wunderground v.1.15,2013-08-23 11:15:00,
2013-08-23 07:20:00,70.5,68.7,30.01,N/A,-737280,0.0,-999.0,94,0.00,,,0.00,Wunderground v.1.15,2013-08-23 11:20:00,
2013-08-23 07:25:00,70.5,68.7,30.01,N/A,-737280,0.0,-999.0,94,0.00,,,0.00,Wunderground v.1.15,2013-08-23 11:25:00,
2013-08-23 07:30:00,70.5,68.7,30.01,N/A,-737280,0.0,-999.0,94,0.00,,,0.00,Wunderground v.1.15,2013-08-23 11:30:00,
2013-08-23 07:35:00,70.5,68.7,30.01,N/A,-737280,0.0,-999.0,94,0.00,,,0.00,Wunderground v.1.15,2013-08-23 11:35:00,
2013-08-23 07:40:00,70.5,68.7,30.01,N/A,-737280,0.0,-999.0,94,0.00,,,0.00,Wunderground v.1.15,2013-08-23 11:40:00,
2013-08-23 07:45:00,71.5,70.0,30.01,West,270,0.0,-999.0,95,0.00,,,0.00,Wunderground v.1.15,2013-08-23 11:45:00,
2013-08-23 07:50:00,71.5,70.0,30.01,West,270,0.0,-999.0,95,0.00,,,0.00,Wunderground v.1.15,2013-08-23 11:50:00,
2013-08-23 07:55:00,71.5,70.0,30.01,West,270,0.0,-999.0,95,0.00,,,0.00,Wunderground v.1.15,2013-08-23 11:55:00,
2013-08-23 08:00:00,71.5,70.0,30.01,West,270,0.0,-999.0,95,0.00,,,0.00,Wunderground v.1.15,2013-08-23 12:00:00,
2013-08-23 08:31:00,72.7,70.6,30.02,WSW,254,1.0,1.0,93,0.00,,,0.00,Wunderground v.1.15,2013-08-23 12:31:00,
2013-08-23 08:40:00,72.9,70.4,30.02,WSW,242,1.0,3.0,92,0.00,,,0.00,Wunderground v.1.15,2013-08-23 12:40:00,
2013-08-23 08:45:00,72.9,70.4,30.02,WSW,242,2.0,3.0,92,0.00,,,0.00,Wunderground v.1.15,2013-08-23 12:45:00,
2013-08-23 08:50:00,73.0,70.5,30.02,WSW,242,1.0,3.0,92,0.00,,,0.00,Wunderground v.1.15,2013-08-23 12:50:00,
2013-08-23 08:55:00,73.4,70.9,30.02,West,263,1.0,1.0,92,0.00,,,0.00,Wunderground v.1.15,2013-08-23 12:55:00,
2013-08-23 09:00:00,73.6,71.1,30.02,West,263,0.0,0.0,92,0.00,,,0.00,Wunderground v.1.15,2013-08-23 13:00:00,
2013-08-23 09:05:00,73.7,71.2,30.02,West,263,0.0,0.0,92,0.00,,,0.00,Wunderground v.1.15,2013-08-23 13:05:00,
2013-08-23 09:10:00,73.9,71.1,30.02,West,263,0.0,0.0,91,0.00,,,0.00,Wunderground v.1.15,2013-08-23 13:10:00,
2013-08-23 09:20:00,74.4,71.6,30.02,WSW,257,1.0,1.0,91,0.00,,,0.00,Wunderground v.1.15,2013-08-23 13:20:00,
2013-08-23 09:25:00,74.8,72.0,30.01,WSW,257,1.0,1.0,91,0.00,,,0.00,Wunderground v.1.15,2013-08-23 13:25:00,
2013-08-23 09:30:00,75.1,72.0,30.02,WSW,257,0.0,0.0,90,0.00,,,0.00,Wunderground v.1.15,2013-08-23 13:30:00,
2013-08-23 09:35:00,75.5,72.4,30.02,West,266,1.0,1.0,90,0.00,,,0.00,Wunderground v.1.15,2013-08-23 13:35:00,
2013-08-23 09:40:00,75.6,72.1,30.02,West,266,1.0,1.0,89,0.00,,,0.00,Wunderground v.1.15,2013-08-23 13:40:00,
2013-08-23 09:45:00,76.0,72.5,30.02,West,265,0.0,2.0,89,0.00,,,0.00,Wunderground v.1.15,2013-08-23 13:45:00,
2013-08-23 09:50:00,76.2,73.1,30.02,WSW,254,1.0,1.0,90,0.00,,,0.00,Wunderground v.1.15,2013-08-23 13:50:00,
2013-08-23 09:55:00,76.7,72.5,30.02,WSW,254,1.0,1.0,87,0.00,,,0.00,Wunderground v.1.15,2013-08-23 13:55:00,
2013-08-23 10:00:00,77.1,73.6,30.02,WSW,254,0.0,1.0,89,0.00,,,0.00,Wunderground v.1.15,2013-08-23 14:00:00,
2013-08-23 10:05:00,77.3,73.5,30.02,WSW,254,1.0,4.0,88,0.00,,,0.00,Wunderground v.1.15,2013-08-23 14:05:00,
2013-08-23 10:10:00,77.3,72.4,30.02,WSW,253,1.0,4.0,85,0.00,,,0.00,Wunderground v.1.15,2013-08-23 14:10:00,
2013-08-23 10:15:00,77.5,73.0,30.02,WSW,253,1.0,4.0,86,0.00,,,0.00,Wunderground v.1.15,2013-08-23 14:15:00,
2013-08-23 10:20:00,77.9,73.4,30.03,WSW,253,1.0,4.0,86,0.00,,,0.00,Wunderground v.1.15,2013-08-23 14:20:00,
2013-08-23 10:25:00,78.1,72.9,30.03,WSW,254,1.0,4.0,84,0.00,,,0.00,Wunderground v.1.15,2013-08-23 14:25:00,
2013-08-23 10:30:00,78.5,73.3,30.03,WSW,254,1.0,1.0,84,0.00,,,0.00,Wunderground v.1.15,2013-08-23 14:30:00,
2013-08-23 10:35:00,78.8,73.9,30.03,WSW,254,0.0,4.0,85,0.00,,,0.00,Wunderground v.1.15,2013-08-23 14:35:00,
2013-08-23 10:40:00,79.2,74.6,30.03,WSW,254,0.0,4.0,86,0.00,,,0.00,Wunderground v.1.15,2013-08-23 14:40:00,
2013-08-23 10:45:00,79.5,74.2,30.03,WSW,254,0.0,4.0,84,0.00,,,0.00,Wunderground v.1.15,2013-08-23 14:45:00,
2013-08-23 10:50:00,80.0,75.1,30.03,WSW,254,0.0,4.0,85,0.00,,,0.00,Wunderground v.1.15,2013-08-23 14:50:00,
2013-08-23 10:55:00,80.6,74.6,30.03,WSW,254,0.0,4.0,82,0.00,,,0.00,Wunderground v.1.15,2013-08-23 14:55:00,
2013-08-23 11:00:00,80.9,74.1,30.03,WSW,247,1.0,1.0,80,0.00,,,0.00,Wunderground v.1.15,2013-08-23 15:00:00,
2013-08-23 11:05:00,81.0,73.5,30.03,WSW,250,1.0,4.0,78,0.00,,,0.00,Wunderground v.1.15,2013-08-23 15:05:00,
2013-08-23 11:10:00,81.0,74.2,30.03,WSW,251,1.0,1.0,80,0.00,,,0.00,Wunderground v.1.15,2013-08-23 15:10:00,
2013-08-23 11:15:00,81.5,75.5,30.03,WSW,251,1.0,4.0,82,0.00,,,0.00,Wunderground v.1.15,2013-08-23 15:15:00,
2013-08-23 11:20:00,82.0,75.2,30.03,WNW,286,1.0,4.0,80,0.00,,,0.00,Wunderground v.1.15,2013-08-23 15:20:00,
2013-08-23 11:25:00,81.8,74.6,30.03,West,279,1.0,4.0,79,0.00,,,0.00,Wunderground v.1.15,2013-08-23 15:25:00,
2013-08-23 11:30:00,81.9,74.7,30.02,West,279,2.0,2.0,79,0.00,,,0.00,Wunderground v.1.15,2013-08-23 15:30:00,
2013-08-23 11:35:00,82.1,75.3,30.02,North,351,1.0,4.0,80,0.00,,,0.00,Wunderground v.1.15,2013-08-23 15:35:00,
2013-08-23 11:40:00,82.7,75.9,30.02,West,281,0.0,4.0,80,0.00,,,0.00,Wunderground v.1.15,2013-08-23 15:40:00,
2013-08-23 11:45:00,83.3,76.1,30.02,West,281,0.0,4.0,79,0.00,,,0.00,Wunderground v.1.15,2013-08-23 15:45:00,
2013-08-23 11:50:00,83.7,76.1,30.02,West,281,0.0,4.0,78,0.00,,,0.00,Wunderground v.1.15,2013-08-23 15:50:00,
2013-08-23 11:55:00,83.6,76.0,30.02,West,281,0.0,4.0,78,0.00,,,0.00,Wunderground v.1.15,2013-08-23 15:55:00,
2013-08-23 12:00:00,83.4,75.0,30.02,West,280,1.0,4.0,76,0.00,,,0.00,Wunderground v.1.15,2013-08-23 16:00:00,
2013-08-23 12:05:00,83.5,75.5,30.02,West,278,1.0,4.0,77,0.00,,,0.00,Wunderground v.1.15,2013-08-23 16:05:00,
2013-08-23 12:10:00,83.8,75.8,30.02,WSW,248,0.0,4.0,77,0.00,,,0.00,Wunderground v.1.15,2013-08-23 16:10:00,
2013-08-23 12:15:00,84.1,74.5,30.02,WSW,249,1.0,4.0,73,0.00,,,0.00,Wunderground v.1.15,2013-08-23 16:15:00,
2013-08-23 12:20:00,84.3,74.3,30.02,WSW,249,1.0,1.0,72,0.00,,,0.00,Wunderground v.1.15,2013-08-23 16:20:00,
2013-08-23 12:25:00,84.7,73.8,30.01,North,360,1.0,4.0,70,0.00,,,0.00,Wunderground v.1.15,2013-08-23 16:25:00,
2013-08-23 12:30:00,85.3,74.4,30.01,NW,323,0.0,4.0,70,0.00,,,0.00,Wunderground v.1.15,2013-08-23 16:30:00,
2013-08-23 12:35:00,85.9,74.5,30.01,SW,226,1.0,4.0,69,0.00,,,0.00,Wunderground v.1.15,2013-08-23 16:35:00,
2013-08-23 12:40:00,85.8,72.2,30.01,WSW,238,2.0,4.0,64,0.00,,,0.00,Wunderground v.1.15,2013-08-23 16:40:00,
2013-08-23 12:45:00,85.4,73.2,30.01,WSW,244,2.0,4.0,67,0.00,,,0.00,Wunderground v.1.15,2013-08-23 16:45:00,
2013-08-23 12:50:00,85.2,72.1,30.00,SW,236,3.0,6.0,65,0.00,,,0.00,Wunderground v.1.15,2013-08-23 16:50:00,
2013-08-23 12:55:00,84.8,72.2,30.00,WSW,253,3.0,6.0,66,0.00,,,0.00,Wunderground v.1.15,2013-08-23 16:55:00,
2013-08-23 13:00:00,84.8,71.7,30.00,SW,233,4.0,4.0,65,0.00,,,0.00,Wunderground v.1.15,2013-08-23 17:00:00,
2013-08-23 13:05:00,85.0,71.9,30.00,SW,230,2.0,4.0,65,0.00,,,0.00,Wunderground v.1.15,2013-08-23 17:05:00,
2013-08-23 13:10:00,85.4,74.9,30.00,WSW,245,2.0,2.0,71,0.00,,,0.00,Wunderground v.1.15,2013-08-23 17:10:00,
2013-08-23 13:15:00,85.6,72.5,29.99,WSW,253,2.0,4.0,65,0.00,,,0.00,Wunderground v.1.15,2013-08-23 17:15:00,
2013-08-23 13:20:00,85.5,72.4,29.99,West,260,2.0,2.0,65,0.00,,,0.00,Wunderground v.1.15,2013-08-23 17:20:00,
2013-08-23 13:25:00,85.7,73.9,29.99,WSW,238,2.0,4.0,68,0.00,,,0.00,Wunderground v.1.15,2013-08-23 17:25:00,
2013-08-23 13:30:00,86.2,73.5,29.99,West,259,1.0,1.0,66,0.00,,,0.00,Wunderground v.1.15,2013-08-23 17:30:00,
2013-08-23 13:35:00,86.5,73.8,29.99,West,266,2.0,2.0,66,0.00,,,0.00,Wunderground v.1.15,2013-08-23 17:35:00,
2013-08-23 13:45:00,86.8,73.6,29.98,SSE,152,2.0,4.0,65,0.00,,,0.00,Wunderground v.1.15,2013-08-23 17:45:00,
2013-08-23 13:50:00,87.3,74.1,29.98,WSW,248,1.0,4.0,65,0.00,,,0.00,Wunderground v.1.15,2013-08-23 17:50:00,
2013-08-23 13:55:00,87.4,72.8,29.98,WSW,248,2.0,4.0,62,0.00,,,0.00,Wunderground v.1.15,2013-08-23 17:55:00,
2013-08-23 14:00:00,87.7,74.5,29.98,WSW,238,2.0,4.0,65,0.00,,,0.00,Wunderground v.1.15,2013-08-23 18:00:00,
2013-08-23 14:05:00,87.8,73.2,29.98,WSW,237,2.0,5.0,62,0.00,,,0.00,Wunderground v.1.15,2013-08-23 18:05:00,
2013-08-23 14:10:00,87.2,73.1,29.98,WSW,250,3.0,5.0,63,0.00,,,0.00,Wunderground v.1.15,2013-08-23 18:10:00,
2013-08-23 14:15:00,86.8,73.2,29.98,WSW,239,3.0,5.0,64,0.00,,,0.00,Wunderground v.1.15,2013-08-23 18:15:00,
2013-08-23 14:20:00,87.1,73.0,29.99,WSW,244,3.0,3.0,63,0.00,,,0.00,Wunderground v.1.15,2013-08-23 18:20:00,
2013-08-23 14:25:00,86.1,69.6,30.00,NE,40,3.0,5.0,58,0.00,,,0.00,Wunderground v.1.15,2013-08-23 18:25:00,
2013-08-23 14:30:00,83.7,68.8,30.00,NNE,19,3.0,4.0,61,0.00,,,0.00,Wunderground v.1.15,2013-08-23 18:30:00,
2013-08-23 14:35:00,81.5,67.7,30.00,WSW,253,3.0,4.0,63,0.00,,,0.00,Wunderground v.1.15,2013-08-23 18:35:00,
2013-08-23 14:40:00,80.2,67.8,30.02,SSE,161,2.0,5.0,66,0.00,,,0.00,Wunderground v.1.15,2013-08-23 18:40:00,
2013-08-23 14:45:00,78.2,67.2,30.02,ESE,114,3.0,5.0,69,0.00,,,0.00,Wunderground v.1.15,2013-08-23 18:45:00,
2013-08-23 14:50:00,76.7,68.6,30.03,SE,137,3.0,5.0,76,0.66,,,0.02,Wunderground v.1.15,2013-08-23 18:50:00,
2013-08-23 14:55:00,75.1,68.5,30.02,SSW,202,2.0,5.0,80,1.52,,,0.15,Wunderground v.1.15,2013-08-23 18:55:00,
2013-08-23 15:00:00,74.0,67.8,30.01,South,171,1.0,1.0,81,0.23,,,0.19,Wunderground v.1.15,2013-08-23 19:00:00,
2013-08-23 15:05:00,73.4,67.9,30.00,South,171,0.0,4.0,83,0.11,,,0.19,Wunderground v.1.15,2013-08-23 19:05:00,
2013-08-23 15:10:00,73.1,68.0,29.99,South,171,0.0,4.0,84,0.06,,,0.19,Wunderground v.1.15,2013-08-23 19:10:00,
2013-08-23 15:15:00,72.9,68.1,29.99,South,171,0.0,4.0,85,0.06,,,0.20,Wunderground v.1.15,2013-08-23 19:15:00,
2013-08-23 15:20:00,72.9,68.8,29.98,South,171,0.0,4.0,87,0.06,,,0.20,Wunderground v.1.15,2013-08-23 19:20:00,
2013-08-23 15:25:00,73.2,69.8,29.97,South,171,0.0,4.0,89,0.04,,,0.20,Wunderground v.1.15,2013-08-23 19:25:00,
2013-08-23 15:30:00,73.4,70.0,29.98,ESE,122,0.0,4.0,89,0.00,,,0.20,Wunderground v.1.15,2013-08-23 19:30:00,
2013-08-23 15:35:00,73.5,70.1,29.97,East,90,0.0,4.0,89,0.00,,,0.20,Wunderground v.1.15,2013-08-23 19:35:00,
2013-08-23 15:40:00,73.8,70.7,29.97,East,90,0.0,4.0,90,0.00,,,0.20,Wunderground v.1.15,2013-08-23 19:40:00,
2013-08-23 15:45:00,74.1,71.3,29.96,East,91,0.0,4.0,91,0.00,,,0.20,Wunderground v.1.15,2013-08-23 19:45:00,
2013-08-23 15:50:00,74.3,71.2,29.95,East,91,0.0,4.0,90,0.00,,,0.20,Wunderground v.1.15,2013-08-23 19:50:00,
2013-08-23 15:55:00,74.6,71.5,29.95,NW,310,0.0,4.0,90,0.00,,,0.20,Wunderground v.1.15,2013-08-23 19:55:00,
2013-08-23 16:00:00,74.7,71.6,29.96,NW,304,0.0,4.0,90,0.00,,,0.20,Wunderground v.1.15,2013-08-23 20:00:00,
2013-08-23 16:05:00,75.2,72.4,29.96,West,271,0.0,4.0,91,0.00,,,0.20,Wunderground v.1.15,2013-08-23 20:05:00,
2013-08-23 16:10:00,75.5,72.4,29.95,West,270,0.0,4.0,90,0.00,,,0.20,Wunderground v.1.15,2013-08-23 20:10:00,
2013-08-23 16:15:00,75.6,72.1,29.95,West,261,0.0,4.0,89,0.00,,,0.20,Wunderground v.1.15,2013-08-23 20:15:00,
2013-08-23 16:20:00,75.3,71.5,29.95,WSW,252,1.0,1.0,88,0.00,,,0.20,Wunderground v.1.15,2013-08-23 20:20:00,
2013-08-23 16:25:00,75.3,71.5,29.95,WSW,252,1.0,4.0,88,0.00,,,0.20,Wunderground v.1.15,2013-08-23 20:25:00,
2013-08-23 16:30:00,75.2,71.7,29.95,WSW,252,0.0,4.0,89,0.00,,,0.20,Wunderground v.1.15,2013-08-23 20:30:00,
2013-08-23 16:35:00,75.2,71.7,29.95,WSW,252,0.0,4.0,89,0.00,,,0.20,Wunderground v.1.15,2013-08-23 20:35:00,
2013-08-23 16:40:00,75.1,71.6,29.95,WSW,252,0.0,4.0,89,0.00,,,0.20,Wunderground v.1.15,2013-08-23 20:40:00,
2013-08-23 16:45:00,75.0,71.5,29.95,WSW,252,0.0,4.0,89,0.00,,,0.20,Wunderground v.1.15,2013-08-23 20:45:00,
2013-08-23 16:50:00,75.1,72.0,29.95,WSW,252,0.0,4.0,90,0.00,,,0.20,Wunderground v.1.15,2013-08-23 20:50:00,
2013-08-23 16:55:00,75.0,71.9,29.95,WSW,252,0.0,4.0,90,0.00,,,0.20,Wunderground v.1.15,2013-08-23 20:55:00,
2013-08-23 17:05:00,74.8,71.7,29.96,WSW,252,0.0,4.0,90,0.00,,,0.20,Wunderground v.1.15,2013-08-23 21:05:00,
2013-08-23 17:10:00,74.7,71.6,29.96,WSW,251,0.0,0.0,90,0.00,,,0.20,Wunderground v.1.15,2013-08-23 21:10:00,
2013-08-23 17:15:00,74.5,71.4,29.95,WSW,252,0.0,0.0,90,0.00,,,0.20,Wunderground v.1.15,2013-08-23 21:15:00,
2013-08-23 17:20:00,74.4,71.3,29.95,WSW,251,0.0,0.0,90,0.00,,,0.20,Wunderground v.1.15,2013-08-23 21:20:00,
2013-08-23 17:25:00,74.4,71.6,29.96,WSW,252,0.0,0.0,91,0.00,,,0.20,Wunderground v.1.15,2013-08-23 21:25:00,
2013-08-23 17:30:00,74.3,71.5,29.96,WSW,252,0.0,0.0,91,0.00,,,0.20,Wunderground v.1.15,2013-08-23 21:30:00,
2013-08-23 17:35:00,74.2,71.4,29.96,WSW,252,0.0,0.0,91,0.00,,,0.20,Wunderground v.1.15,2013-08-23 21:35:00,
2013-08-23 17:40:00,74.2,71.4,29.96,WSW,252,0.0,0.0,91,0.00,,,0.20,Wunderground v.1.15,2013-08-23 21:40:00,
2013-08-23 17:45:00,74.2,71.4,29.96,WSW,252,0.0,0.0,91,0.00,,,0.20,Wunderground v.1.15,2013-08-23 21:45:00,
2013-08-23 17:50:00,74.2,71.4,29.96,WSW,252,0.0,0.0,91,0.00,,,0.20,Wunderground v.1.15,2013-08-23 21:50:00,
2013-08-23 17:55:00,74.2,71.7,29.96,WSW,252,0.0,0.0,92,0.00,,,0.20,Wunderground v.1.15,2013-08-23 21:55:00,
2013-08-23 18:00:00,74.3,71.5,29.96,WSW,252,0.0,0.0,91,0.00,,,0.20,Wunderground v.1.15,2013-08-23 22:00:00,
2013-08-23 18:05:00,74.3,71.8,29.96,WSW,252,0.0,1.0,92,0.00,,,0.20,Wunderground v.1.15,2013-08-23 22:05:00,
2013-08-23 18:10:00,74.4,71.9,29.96,WSW,252,0.0,1.0,92,0.00,,,0.20,Wunderground v.1.15,2013-08-23 22:10:00,
2013-08-23 18:15:00,74.5,72.0,29.96,WSW,252,0.0,1.0,92,0.00,,,0.20,Wunderground v.1.15,2013-08-23 22:15:00,
2013-08-23 18:25:00,75.7,72.6,29.96,West,259,2.0,3.0,90,0.00,,,0.20,Wunderground v.1.15,2013-08-23 22:25:00,
2013-08-23 18:30:00,76.2,72.7,29.96,SW,229,3.0,3.0,89,0.00,,,0.20,Wunderground v.1.15,2013-08-23 22:30:00,
2013-08-23 18:35:00,76.6,72.8,29.96,WSW,252,3.0,3.0,88,0.00,,,0.20,Wunderground v.1.15,2013-08-23 22:35:00,
2013-08-23 18:40:00,76.6,72.8,29.96,WSW,254,3.0,3.0,88,0.00,,,0.20,Wunderground v.1.15,2013-08-23 22:40:00,
2013-08-23 18:45:00,76.6,72.4,29.96,WSW,242,2.0,4.0,87,0.00,,,0.20,Wunderground v.1.15,2013-08-23 22:45:00,
2013-08-23 18:50:00,76.4,72.2,29.96,WSW,252,3.0,3.0,87,0.00,,,0.20,Wunderground v.1.15,2013-08-23 22:50:00,
2013-08-23 18:55:00,76.2,71.7,29.96,WSW,256,3.0,3.0,86,0.00,,,0.20,Wunderground v.1.15,2013-08-23 22:55:00,
2013-08-23 19:00:00,76.0,71.5,29.96,WSW,254,2.0,2.0,86,0.00,,,0.20,Wunderground v.1.15,2013-08-23 23:00:00,
2013-08-23 19:05:00,76.0,71.8,29.96,WSW,254,1.0,2.0,87,0.00,,,0.20,Wunderground v.1.15,2013-08-23 23:05:00,
2013-08-23 19:10:00,76.1,72.3,29.96,WSW,254,0.0,1.0,88,0.00,,,0.20,Wunderground v.1.15,2013-08-23 23:10:00,
2013-08-23 19:15:00,76.1,72.3,29.96,WSW,254,0.0,1.0,88,0.00,,,0.20,Wunderground v.1.15,2013-08-23 23:15:00,
2013-08-23 19:20:00,75.7,71.9,29.96,WSW,254,1.0,2.0,88,0.00,,,0.20,Wunderground v.1.15,2013-08-23 23:20:00,
2013-08-23 19:25:00,75.3,71.5,29.96,WSW,254,1.0,2.0,88,0.00,,,0.20,Wunderground v.1.15,2013-08-23 23:25:00,
2013-08-23 19:30:00,74.9,71.1,29.96,WSW,254,1.0,1.0,88,0.00,,,0.20,Wunderground v.1.15,2013-08-23 23:30:00,
2013-08-23 19:35:00,74.7,70.9,29.97,WSW,254,0.0,1.0,88,0.00,,,0.20,Wunderground v.1.15,2013-08-23 23:35:00,
2013-08-23 19:40:00,74.4,70.6,29.97,WSW,254,0.0,1.0,88,0.00,,,0.20,Wunderground v.1.15,2013-08-23 23:40:00,
2013-08-23 19:45:00,74.1,70.3,29.97,WSW,254,0.0,1.0,88,0.00,,,0.20,Wunderground v.1.15,2013-08-23 23:45:00,
2013-08-23 19:50:00,74.0,70.6,29.98,WSW,254,0.0,1.0,89,0.00,,,0.20,Wunderground v.1.15,2013-08-23 23:50:00,
2013-08-23 19:55:00,73.9,70.5,29.98,WSW,254,0.0,1.0,89,0.00,,,0.20,Wunderground v.1.15,2013-08-23 23:55:00,
2013-08-23 20:00:00,73.7,70.3,29.98,WSW,254,0.0,1.0,89,0.00,,,0.20,Wunderground v.1.15,2013-08-24 00:00:00,
2013-08-23 20:05:00,73.5,70.1,29.98,WSW,254,0.0,1.0,89,0.00,,,0.20,Wunderground v.1.15,2013-08-24 00:05:00,
2013-08-23 20:10:00,73.4,70.0,29.99,WSW,254,0.0,1.0,89,0.00,,,0.20,Wunderground v.1.15,2013-08-24 00:10:00,
2013-08-23 20:15:00,73.3,70.2,29.99,WSW,254,0.0,1.0,90,0.00,,,0.20,Wunderground v.1.15,2013-08-24 00:15:00,
2013-08-23 20:20:00,73.2,70.1,29.99,WSW,254,0.0,1.0,90,0.00,,,0.20,Wunderground v.1.15,2013-08-24 00:20:00,
2013-08-23 20:25:00,73.1,70.0,29.99,WSW,254,0.0,1.0,90,0.00,,,0.20,Wunderground v.1.15,2013-08-24 00:25:00,
2013-08-23 20:30:00,73.0,70.2,29.99,WSW,254,0.0,1.0,91,0.00,,,0.20,Wunderground v.1.15,2013-08-24 00:30:00,
2013-08-23 20:35:00,72.9,70.1,30.00,WSW,254,0.0,1.0,91,0.00,,,0.20,Wunderground v.1.15,2013-08-24 00:35:00,
2013-08-23 20:40:00,72.8,70.0,29.99,WSW,254,0.0,1.0,91,0.00,,,0.20,Wunderground v.1.15,2013-08-24 00:40:00,
2013-08-23 20:45:00,72.7,69.9,30.00,WSW,254,0.0,1.0,91,0.00,,,0.20,Wunderground v.1.15,2013-08-24 00:45:00,
2013-08-23 20:50:00,72.6,69.8,30.00,WSW,254,0.0,1.0,91,0.00,,,0.20,Wunderground v.1.15,2013-08-24 00:50:00,
2013-08-23 20:55:00,72.5,70.0,30.00,WSW,254,0.0,1.0,92,0.00,,,0.20,Wunderground v.1.15,2013-08-24 00:55:00,
2013-08-23 21:00:00,72.4,69.9,30.00,WSW,254,0.0,1.0,92,0.00,,,0.20,Wunderground v.1.15,2013-08-24 01:00:00,
2013-08-23 21:05:00,72.4,69.9,30.00,WSW,254,0.0,1.0,92,0.00,,,0.20,Wunderground v.1.15,2013-08-24 01:05:00,
2013-08-23 21:10:00,72.4,69.9,30.00,WSW,254,0.0,1.0,92,0.00,,,0.20,Wunderground v.1.15,2013-08-24 01:10:00,
2013-08-23 21:15:00,72.3,69.8,30.00,WSW,254,0.0,1.0,92,0.00,,,0.20,Wunderground v.1.15,2013-08-24 01:15:00,
2013-08-23 21:20:00,72.3,69.8,30.01,WSW,254,0.0,1.0,92,0.00,,,0.20,Wunderground v.1.15,2013-08-24 01:20:00,
2013-08-23 21:25:00,72.2,69.7,30.01,WSW,254,0.0,1.0,92,0.00,,,0.20,Wunderground v.1.15,2013-08-24 01:25:00,
2013-08-23 21:30:00,72.2,69.7,30.01,WSW,254,0.0,1.0,92,0.00,,,0.20,Wunderground v.1.15,2013-08-24 01:30:00,
2013-08-23 21:35:00,72.1,69.6,30.01,WSW,254,0.0,1.0,92,0.00,,,0.20,Wunderground v.1.15,2013-08-24 01:35:00,
2013-08-23 21:40:00,72.1,69.6,30.02,WSW,254,0.0,1.0,92,0.00,,,0.20,Wunderground v.1.15,2013-08-24 01:40:00,
2013-08-23 21:45:00,72.0,69.5,30.02,WSW,254,0.0,1.0,92,0.00,,,0.20,Wunderground v.1.15,2013-08-24 01:45:00,
2013-08-23 21:50:00,72.0,69.5,30.02,WSW,254,0.0,1.0,92,0.00,,,0.20,Wunderground v.1.15,2013-08-24 01:50:00,
2013-08-23 21:55:00,71.8,69.3,30.02,WSW,254,0.0,1.0,92,0.00,,,0.20,Wunderground v.1.15,2013-08-24 01:55:00,
2013-08-23 22:00:00,71.7,69.3,30.03,WSW,254,0.0,1.0,92,0.00,,,0.20,Wunderground v.1.15,2013-08-24 02:00:00,
2013-08-23 22:05:00,71.7,69.3,30.03,N/A,-737280,0.0,-999.0,92,0.00,,,0.20,Wunderground v.1.15,2013-08-24 02:05:00,
2013-08-23 22:10:00,71.7,69.3,30.03,N/A,-737280,0.0,-999.0,92,0.00,,,0.20,Wunderground v.1.15,2013-08-24 02:10:00,
2013-08-23 22:15:00,72.0,70.2,30.04,NNE,23,0.0,-999.0,94,0.00,,,0.20,Wunderground v.1.15,2013-08-24 02:15:00,
2013-08-23 22:20:00,72.0,70.2,30.04,NNE,23,0.0,-999.0,94,0.00,,,0.20,Wunderground v.1.15,2013-08-24 02:20:00,
2013-08-23 22:25:00,72.0,70.2,30.04,NNE,23,0.0,-999.0,94,0.00,,,0.20,Wunderground v.1.15,2013-08-24 02:25:00,
2013-08-23 22:30:00,72.0,70.2,30.04,NNE,23,0.0,-999.0,94,0.00,,,0.20,Wunderground v.1.15,2013-08-24 02:30:00,
2013-08-23 22:35:00,72.0,70.2,30.04,NNE,23,0.0,-999.0,94,0.00,,,0.20,Wunderground v.1.15,2013-08-24 02:35:00,
2013-08-23 22:40:00,72.0,70.2,30.04,NNE,23,0.0,-999.0,94,0.00,,,0.20,Wunderground v.1.15,2013-08-24 02:40:00,
2013-08-23 22:45:00,72.1,69.6,30.04,ENE,68,0.0,-999.0,92,0.00,,,0.20,Wunderground v.1.15,2013-08-24 02:45:00,
2013-08-23 22:50:00,72.1,69.6,30.04,ENE,68,0.0,-999.0,92,0.00,,,0.20,Wunderground v.1.15,2013-08-24 02:50:00,
2013-08-23 22:55:00,72.1,69.6,30.04,ENE,68,0.0,-999.0,92,0.00,,,0.20,Wunderground v.1.15,2013-08-24 02:55:00,
2013-08-23 23:00:00,72.1,69.6,30.04,ENE,68,0.0,-999.0,92,0.00,,,0.20,Wunderground v.1.15,2013-08-24 03:00:00,
2013-08-23 23:05:00,72.1,69.6,30.04,ENE,68,0.0,-999.0,92,0.00,,,0.20,Wunderground v.1.15,2013-08-24 03:05:00,
2013-08-23 23:10:00,72.1,69.6,30.04,ENE,68,0.0,-999.0,92,0.00,,,0.20,Wunderground v.1.15,2013-08-24 03:10:00,
2013-08-23 23:15:00,71.3,68.5,30.05,NNE,23,1.0,-999.0,91,0.00,,,0.20,Wunderground v.1.15,2013-08-24 03:15:00,
2013-08-23 23:20:00,71.3,68.5,30.05,NNE,23,1.0,-999.0,91,0.00,,,0.20,Wunderground v.1.15,2013-08-24 03:20:00,
2013-08-23 23:25:00,71.3,68.5,30.05,NNE,23,1.0,-999.0,91,0.00,,,0.20,Wunderground v.1.15,2013-08-24 03:25:00,
2013-08-23 23:30:00,71.3,68.5,30.05,NNE,23,1.0,-999.0,91,0.00,,,0.20,Wunderground v.1.15,2013-08-24 03:30:00,
2013-08-23 23:35:00,71.3,68.5,30.05,NNE,23,1.0,-999.0,91,0.00,,,0.20,Wunderground v.1.15,2013-08-24 03:35:00,
2013-08-23 23:40:00,71.3,68.5,30.05,NNE,23,1.0,-999.0,91,0.00,,,0.20,Wunderground v.1.15,2013-08-24 03:40:00,
2013-08-23 23:45:00,70.3,67.5,30.07,NE,45,1.0,-999.0,91,0.00,,,0.20,Wunderground v.1.15,2013-08-24 03:45:00,
2013-08-23 23:50:00,70.3,67.5,30.07,NE,45,1.0,-999.0,91,0.00,,,0.20,Wunderground v.1.15,2013-08-24 03:50:00,
2013-08-23 23:55:00,70.3,67.5,30.07,NE,45,1.0,-999.0,91,0.00,,,0.20,Wunderground v.1.15,2013-08-24 03:55:00,